| time (UTC) | temp F | wind direction | speed knots | gust knots | rain 1hr in | rain 24hr in | rain mn in | humidity % | barometer mb |
| 20260502203504 | 84 | 139 | 6.1 | 10.4 | 0.00 | 0.00 | 0.00 | 9 | 1021.6 |
| 20260502203004 | 84 | 86 | 6.1 | 10.4 | 0.00 | 0.00 | 0.00 | 9 | 1021.6 |
| 20260502202504 | 83 | 98 | 5.2 | 8.7 | 0.00 | 0.00 | 0.00 | 9 | 1021.7 |
| 20260502202004 | 84 | 158 | 6.1 | 14.8 | 0.00 | 0.00 | 0.00 | 9 | 1021.9 |
| 20260502201504 | 83 | 109 | 7.8 | 11.3 | 0.00 | 0.00 | 0.00 | 9 | 1022.1 |
| 20260502201003 | 84 | 74 | 2.6 | 12.2 | 0.00 | 0.00 | 0.00 | 9 | 1022.2 |
| 20260502200503 | 84 | 115 | 7.0 | 10.4 | 0.00 | 0.00 | 0.00 | 9 | 1022.2 |
| 20260502200003 | 84 | 121 | 4.3 | 13.0 | 0.00 | 0.00 | 0.00 | 9 | 1022.3 |
| 20260502195503 | 84 | 118 | 5.2 | 14.8 | 0.00 | 0.00 | 0.00 | 9 | 1022.3 |
| 20260502195004 | 83 | 86 | 6.1 | 10.4 | 0.00 | 0.00 | 0.00 | 9 | 1022.3 |
| 20260502194503 | 83 | 125 | 6.1 | 13.9 | 0.00 | 0.00 | 0.00 | 9 | 1022.4 |
| 20260502193504 | 83 | 134 | 4.3 | 8.7 | 0.00 | 0.00 | 0.00 | 9 | 1022.5 |
| 20260502192504 | 83 | 87 | 2.6 | 7.8 | 0.00 | 0.00 | 0.00 | 10 | 1022.6 |
| 20260502191504 | 82 | 97 | 3.5 | 7.0 | 0.00 | 0.00 | 0.00 | 9 | 1022.7 |
| 20260502191005 | 82 | 110 | 3.5 | 10.4 | 0.00 | 0.00 | 0.00 | 9 | 1022.9 |
| 20260502190503 | 83 | 126 | 4.3 | 11.3 | 0.00 | 0.00 | 0.00 | 9 | 1022.8 |
| 20260502190005 | 82 | 92 | 5.2 | 8.7 | 0.00 | 0.00 | 0.00 | 9 | 1022.8 |
| 20260502185504 | 82 | 97 | 0.9 | 8.7 | 0.00 | 0.00 | 0.00 | 9 | 1022.9 |
| 20260502184505 | 82 | 85 | 2.6 | 8.7 | 0.00 | 0.00 | 0.00 | 9 | 1023.0 |
| 20260502184003 | 82 | 100 | 4.3 | 10.4 | 0.00 | 0.00 | 0.00 | 9 | 1023.2 |
| 20260502183504 | 82 | 113 | 5.2 | 10.4 | 0.00 | 0.00 | 0.00 | 10 | 1023.2 |
| 20260502183003 | 82 | 115 | 3.5 | 10.4 | 0.00 | 0.00 | 0.00 | 9 | 1023.3 |
| 20260502182504 | 82 | 104 | 4.3 | 10.4 | 0.00 | 0.00 | 0.00 | 9 | 1023.2 |
| 20260502181503 | 81 | 108 | 5.2 | 10.4 | 0.00 | 0.00 | 0.00 | 10 | 1023.3 |
| 20260502181003 | 81 | 108 | 5.2 | 10.4 | 0.00 | 0.00 | 0.00 | 10 | 1023.2 |
| 20260502180504 | 81 | 122 | 7.0 | 11.3 | 0.00 | 0.00 | 0.00 | 10 | 1023.3 |
| 20260502170504 | 79 | 122 | 4.3 | 10.4 | 0.00 | 0.00 | 0.00 | 11 | 1023.5 |
| 20260502164003 | 78 | 138 | 0.9 | 6.1 | 0.00 | 0.00 | 0.00 | 12 | 1023.7 |
| 20260502163504 | 78 | 99 | 2.6 | 5.2 | 0.00 | 0.00 | 0.00 | 11 | 1023.7 |
| 20260502163004 | 78 | 103 | 0.9 | 2.6 | 0.00 | 0.00 | 0.00 | 11 | 1023.8 |
| 20260502162504 | 78 | 115 | 1.7 | 6.1 | 0.00 | 0.00 | 0.00 | 12 | 1023.7 |
| 20260502162004 | 78 | 137 | 1.7 | 6.1 | 0.00 | 0.00 | 0.00 | 12 | 1023.7 |
| 20260502161004 | 78 | 130 | 0.9 | 2.6 | 0.00 | 0.00 | 0.00 | 12 | 1023.7 |
| 20260502152004 | 75 | 136 | 0.9 | 7.0 | 0.00 | 0.00 | 0.00 | 13 | 1023.4 |
| 20260502151504 | 74 | 146 | 0.9 | 2.6 | 0.00 | 0.00 | 0.00 | 14 | 1023.4 |
| 20260502151003 | 74 | 158 | 0.0 | 2.6 | 0.00 | 0.00 | 0.00 | 14 | 1023.4 |
| 20260502150504 | 73 | 165 | 3.5 | 5.2 | 0.00 | 0.00 | 0.00 | 14 | 1023.4 |
| 20260502130504 | 58 | 245 | 0.0 | 0.0 | 0.00 | 0.00 | 0.00 | 27 | 1022.2 |
| 20260502123004 | 57 | 244 | 0.0 | 0.0 | 0.00 | 0.00 | 0.00 | 28 | 1021.8 |
| 20260502122504 | 57 | 243 | 0.0 | 0.0 | 0.00 | 0.00 | 0.00 | 28 | 1022.1 |
| 20260502122003 | 57 | 243 | 0.0 | 0.0 | 0.00 | 0.00 | 0.00 | 27 | 1022.1 |
| 20260502121504 | 58 | 246 | 0.0 | 0.0 | 0.00 | 0.00 | 0.00 | 27 | 1022.1 |
| 20260502121003 | 58 | 247 | 0.0 | 0.0 | 0.00 | 0.00 | 0.00 | 27 | 1022.1 |
| 20260502120504 | 58 | 245 | 0.0 | 2.6 | 0.00 | 0.00 | 0.00 | 27 | 1022.1 |
| 20260502115504 | 59 | 240 | 0.0 | 0.0 | 0.00 | 0.00 | 0.00 | 27 | 1022.1 |
| 20260502115004 | 59 | 244 | 0.0 | 0.0 | 0.00 | 0.00 | 0.00 | 27 | 1022.1 |
| 20260502114504 | 59 | 239 | 0.0 | 0.0 | 0.00 | 0.00 | 0.00 | 26 | 1022.0 |
| 20260502114004 | 59 | 233 | 0.0 | 0.0 | 0.00 | 0.00 | 0.00 | 26 | 1022.1 |
| 20260502113504 | 59 | 239 | 0.0 | 0.0 | 0.00 | 0.00 | 0.00 | 26 | 1022.1 |
| 20260502113004 | 60 | 238 | 0.0 | 0.0 | 0.00 | 0.00 | 0.00 | 26 | 1022.1 |
| 20260502112504 | 60 | 239 | 0.0 | 0.0 | 0.00 | 0.00 | 0.00 | 26 | 1022.1 |
| 20260502112003 | 60 | 243 | 0.0 | 0.0 | 0.00 | 0.00 | 0.00 | 26 | 1022.1 |
| 20260502111503 | 60 | 240 | 0.0 | 0.0 | 0.00 | 0.00 | 0.00 | 26 | 1022.0 |
| 20260502111004 | 59 | 235 | 0.0 | 0.0 | 0.00 | 0.00 | 0.00 | 26 | 1022.2 |
| 20260502110504 | 59 | 236 | 0.0 | 0.0 | 0.00 | 0.00 | 0.00 | 27 | 1022.2 |
| 20260502110004 | 59 | 241 | 0.0 | 0.0 | 0.00 | 0.00 | 0.00 | 27 | 1022.1 |
| 20260502105504 | 58 | 246 | 0.0 | 0.0 | 0.00 | 0.00 | 0.00 | 27 | 1022.1 |
| 20260502105004 | 59 | 245 | 0.0 | 0.0 | 0.00 | 0.00 | 0.00 | 26 | 1022.0 |
| 20260502104503 | 59 | 243 | 0.0 | 0.0 | 0.00 | 0.00 | 0.00 | 26 | 1022.0 |
| 20260502103503 | 59 | 241 | 0.0 | 0.0 | 0.00 | 0.00 | 0.00 | 26 | 1022.0 |
| 20260502103004 | 59 | 242 | 0.0 | 0.0 | 0.00 | 0.00 | 0.00 | 26 | 1022.0 |
| 20260502101504 | 59 | 240 | 0.0 | 0.0 | 0.00 | 0.00 | 0.00 | 26 | 1021.9 |
| 20260502101003 | 59 | 240 | 0.0 | 0.0 | 0.00 | 0.00 | 0.00 | 26 | 1022.0 |
| 20260502100504 | 59 | 240 | 0.0 | 0.0 | 0.00 | 0.00 | 0.00 | 26 | 1022.0 |
| 20260502091504 | 60 | 249 | 0.0 | 0.0 | 0.00 | 0.00 | 0.00 | 25 | 1021.9 |
| 20260502090503 | 60 | 249 | 0.0 | 0.0 | 0.00 | 0.00 | 0.00 | 25 | 1022.0 |
| 20260502071004 | 64 | 219 | 0.0 | 0.0 | 0.00 | 0.00 | 0.00 | 22 | 1022.1 |
| 20260502070003 | 64 | 231 | 0.0 | 0.0 | 0.00 | 0.00 | 0.00 | 22 | 1021.9 |
| 20260502065503 | 64 | 221 | 0.0 | 0.0 | 0.00 | 0.00 | 0.00 | 22 | 1021.9 |
| 20260502064504 | 65 | 242 | 0.0 | 0.0 | 0.00 | 0.00 | 0.00 | 22 | 1022.0 |
| 20260502064004 | 65 | 236 | 0.0 | 0.0 | 0.00 | 0.00 | 0.00 | 21 | 1021.9 |
| 20260502063503 | 66 | 232 | 0.0 | 0.0 | 0.00 | 0.00 | 0.00 | 21 | 1021.8 |
| 20260502062504 | 66 | 230 | 0.0 | 0.0 | 0.00 | 0.00 | 0.00 | 21 | 1021.9 |
| 20260502062004 | 66 | 227 | 0.0 | 0.0 | 0.00 | 0.00 | 0.00 | 21 | 1021.9 |
| 20260502061504 | 66 | 230 | 0.0 | 0.0 | 0.00 | 0.00 | 0.00 | 20 | 1021.8 |
| 20260502060504 | 67 | 223 | 0.0 | 0.0 | 0.00 | 0.00 | 0.00 | 20 | 1021.9 |
| 20260502060003 | 67 | 227 | 0.0 | 0.0 | 0.00 | 0.00 | 0.00 | 20 | 1021.9 |
| 20260502055504 | 67 | 221 | 0.0 | 0.0 | 0.00 | 0.00 | 0.00 | 20 | 1021.9 |
| 20260502055004 | 67 | 215 | 0.0 | 0.0 | 0.00 | 0.00 | 0.00 | 20 | 1021.9 |
| 20260502054504 | 67 | 220 | 0.0 | 0.0 | 0.00 | 0.00 | 0.00 | 20 | 1022.0 |
| 20260502054004 | 66 | 226 | 0.0 | 0.0 | 0.00 | 0.00 | 0.00 | 20 | 1021.9 |
| 20260502053004 | 67 | 234 | 0.0 | 0.0 | 0.00 | 0.00 | 0.00 | 20 | 1021.9 |
| 20260502052503 | 67 | 237 | 0.9 | 2.6 | 0.00 | 0.00 | 0.00 | 20 | 1021.9 |
| 20260502051004 | 66 | 227 | 0.0 | 0.0 | 0.00 | 0.00 | 0.00 | 20 | 1021.7 |
| 20260502050503 | 66 | 233 | 0.0 | 0.0 | 0.00 | 0.00 | 0.00 | 20 | 1021.7 |
| 20260502050003 | 66 | 237 | 0.0 | 0.0 | 0.00 | 0.00 | 0.00 | 20 | 1021.7 |
| 20260502045504 | 65 | 238 | 0.0 | 0.0 | 0.00 | 0.00 | 0.00 | 20 | 1021.7 |
| 20260502045004 | 65 | 276 | 0.0 | 0.0 | 0.00 | 0.00 | 0.00 | 20 | 1021.6 |
| 20260502044504 | 65 | 288 | 0.0 | 0.0 | 0.00 | 0.00 | 0.00 | 20 | 1021.6 |
| 20260502044004 | 65 | 288 | 0.0 | 0.0 | 0.00 | 0.00 | 0.00 | 20 | 1021.6 |
| 20260502043505 | 64 | 326 | 0.0 | 0.0 | 0.00 | 0.00 | 0.00 | 20 | 1021.5 |
| 20260502043004 | 65 | 9 | 0.0 | 0.0 | 0.00 | 0.00 | 0.00 | 20 | 1021.4 |
| 20260502042504 | 65 | 17 | 0.0 | 0.0 | 0.00 | 0.00 | 0.00 | 20 | 1021.5 |
| 20260502041004 | 66 | 19 | 0.0 | 0.0 | 0.00 | 0.00 | 0.00 | 20 | 1021.2 |
| 20260502040504 | 65 | 19 | 0.0 | 0.0 | 0.00 | 0.00 | 0.00 | 20 | 1021.0 |
| 20260502035504 | 65 | 20 | 0.0 | 0.0 | 0.00 | 0.00 | 0.00 | 20 | 1021.0 |
| 20260502035003 | 66 | 20 | 0.0 | 0.0 | 0.00 | 0.00 | 0.00 | 18 | 1020.9 |
| 20260502034504 | 68 | 28 | 0.0 | 0.0 | 0.00 | 0.00 | 0.00 | 18 | 1020.7 |
| 20260502034004 | 69 | 28 | 0.0 | 0.0 | 0.00 | 0.00 | 0.00 | 17 | 1020.6 |
| 20260502033503 | 70 | 28 | 0.0 | 0.0 | 0.00 | 0.00 | 0.00 | 18 | 1020.5 |
| 20260502032503 | 71 | 28 | 0.0 | 0.0 | 0.00 | 0.00 | 0.00 | 18 | 1020.3 |
| 20260502032005 | 71 | 28 | 0.0 | 0.0 | 0.00 | 0.00 | 0.00 | 17 | 1020.4 |
| 20260502031504 | 72 | 28 | 0.0 | 0.0 | 0.00 | 0.00 | 0.00 | 17 | 1020.3 |
| 20260502030512 | 73 | 28 | 0.0 | 0.0 | 0.00 | 0.00 | 0.00 | 16 | 1020.2 |
| 20260502030041 | 73 | 28 | 0.0 | 0.0 | 0.00 | 0.00 | 0.00 | 16 | 1020.3 |
| 20260502025504 | 74 | 28 | 0.0 | 0.0 | 0.00 | 0.00 | 0.00 | 16 | 1020.2 |
| 20260502025004 | 75 | 28 | 0.0 | 0.0 | 0.00 | 0.00 | 0.00 | 16 | 1020.1 |
| 20260502024504 | 75 | 28 | 0.0 | 0.0 | 0.00 | 0.00 | 0.00 | 16 | 1020.1 |
| 20260502024004 | 76 | 28 | 0.0 | 0.0 | 0.00 | 0.00 | 0.00 | 15 | 1020.1 |
| 20260502023504 | 76 | 27 | 0.0 | 0.0 | 0.00 | 0.00 | 0.00 | 15 | 1020.1 |
| 20260502023004 | 77 | 28 | 0.0 | 0.0 | 0.00 | 0.00 | 0.00 | 15 | 1020.0 |
| 20260502022004 | 78 | 34 | 0.0 | 0.0 | 0.00 | 0.00 | 0.00 | 15 | 1020.0 |
| 20260502021004 | 79 | 39 | 2.6 | 7.0 | 0.00 | 0.00 | 0.00 | 14 | 1019.9 |
| 20260502020004 | 80 | 46 | 1.7 | 6.1 | 0.00 | 0.00 | 0.00 | 14 | 1019.8 |
| 20260502015505 | 80 | 40 | 5.2 | 8.7 | 0.00 | 0.00 | 0.00 | 14 | 1019.8 |
| 20260502014504 | 81 | 78 | 1.7 | 5.2 | 0.00 | 0.00 | 0.00 | 14 | 1019.7 |
| 20260502013004 | 81 | 20 | 5.2 | 8.7 | 0.00 | 0.00 | 0.00 | 14 | 1019.6 |
| 20260502012504 | 81 | 31 | 4.3 | 11.3 | 0.00 | 0.00 | 0.00 | 14 | 1019.6 |
| 20260502011504 | 82 | 77 | 2.6 | 6.1 | 0.00 | 0.00 | 0.00 | 14 | 1019.6 |
| 20260502011005 | 82 | 84 | 2.6 | 8.7 | 0.00 | 0.00 | 0.00 | 14 | 1019.5 |
| 20260502010504 | 82 | 19 | 8.7 | 12.2 | 0.00 | 0.00 | 0.00 | 14 | 1019.6 |
| 20260502010004 | 83 | 31 | 2.6 | 7.8 | 0.00 | 0.00 | 0.00 | 14 | 1019.6 |
| 20260502005504 | 83 | 50 | 2.6 | 8.7 | 0.00 | 0.00 | 0.00 | 14 | 1019.6 |
| 20260502005003 | 83 | 40 | 3.5 | 7.8 | 0.00 | 0.00 | 0.00 | 14 | 1019.6 |
| 20260502004503 | 83 | 39 | 4.3 | 8.7 | 0.00 | 0.00 | 0.00 | 14 | 1019.5 |
| 20260502004005 | 83 | 80 | 1.7 | 2.6 | 0.00 | 0.00 | 0.00 | 14 | 1019.5 |
| 20260502003503 | 83 | 92 | 3.5 | 7.0 | 0.00 | 0.00 | 0.00 | 14 | 1019.5 |
| 20260502003004 | 83 | 96 | 2.6 | 8.7 | 0.00 | 0.00 | 0.00 | 14 | 1019.6 |
| 20260502002504 | 83 | 39 | 6.1 | 10.4 | 0.00 | 0.00 | 0.00 | 14 | 1019.5 |
| 20260502002004 | 83 | 7 | 4.3 | 7.8 | 0.00 | 0.00 | 0.00 | 15 | 1019.5 |
| 20260502001004 | 83 | 54 | 1.7 | 6.1 | 0.00 | 0.00 | 0.00 | 15 | 1019.7 |
| 20260502000504 | 83 | 57 | 2.6 | 10.4 | 0.00 | 0.00 | 0.00 | 15 | 1019.7 |
| 20260502000004 | 83 | 28 | 5.2 | 10.4 | 0.00 | 0.00 | 0.00 | 15 | 1019.7 |
| 20260501235503 | 83 | 110 | 2.6 | 7.0 | 0.00 | 0.00 | 0.00 | 15 | 1019.7 |
| 20260501235004 | 83 | 43 | 2.6 | 8.7 | 0.00 | 0.00 | 0.00 | 15 | 1019.7 |
| 20260501234504 | 83 | 68 | 1.7 | 6.1 | 0.00 | 0.00 | 0.00 | 15 | 1019.7 |
| 20260501234004 | 83 | 46 | 5.2 | 10.4 | 0.00 | 0.00 | 0.00 | 15 | 1019.7 |
| 20260501233504 | 83 | 47 | 6.1 | 10.4 | 0.00 | 0.00 | 0.00 | 15 | 1019.7 |
| 20260501233004 | 84 | 66 | 1.7 | 2.6 | 0.00 | 0.00 | 0.00 | 15 | 1019.7 |
| 20260501232504 | 84 | 86 | 4.3 | 8.7 | 0.00 | 0.00 | 0.00 | 15 | 1019.7 |
| 20260501232004 | 84 | 59 | 1.7 | 7.8 | 0.00 | 0.00 | 0.00 | 15 | 1019.7 |
| 20260501231505 | 83 | 31 | 5.2 | 11.3 | 0.00 | 0.00 | 0.00 | 15 | 1019.8 |
| 20260501231004 | 83 | 32 | 6.1 | 11.3 | 0.00 | 0.00 | 0.00 | 15 | 1019.9 |
| 20260501230005 | 83 | 35 | 5.2 | 10.4 | 0.00 | 0.00 | 0.00 | 15 | 1019.8 |
| 20260501225503 | 83 | 8 | 7.8 | 11.3 | 0.00 | 0.00 | 0.00 | 15 | 1019.8 |
| 20260501225003 | 83 | 35 | 8.7 | 13.0 | 0.00 | 0.00 | 0.00 | 15 | 1019.9 |
| 20260501224503 | 83 | 20 | 8.7 | 12.2 | 0.00 | 0.00 | 0.00 | 15 | 1020.1 |
| 20260501223502 | 84 | 14 | 3.5 | 8.7 | 0.00 | 0.00 | 0.00 | 16 | 1020.2 |
| 20260501223003 | 84 | 99 | 2.6 | 7.0 | 0.00 | 0.00 | 0.00 | 16 | 1020.3 |
| 20260501222504 | 84 | 102 | 5.2 | 8.7 | 0.00 | 0.00 | 0.00 | 16 | 1020.2 |
| 20260501222003 | 84 | 77 | 4.3 | 10.4 | 0.00 | 0.00 | 0.00 | 16 | 1020.3 |
| 20260501221503 | 84 | 78 | 2.6 | 7.8 | 0.00 | 0.00 | 0.00 | 16 | 1020.4 |
| 20260501221004 | 84 | 68 | 4.3 | 12.2 | 0.00 | 0.00 | 0.00 | 16 | 1020.6 |
| 20260501220503 | 84 | 23 | 6.1 | 10.4 | 0.00 | 0.00 | 0.00 | 16 | 1020.7 |
| 20260501220004 | 84 | 332 | 2.6 | 8.7 | 0.00 | 0.00 | 0.00 | 16 | 1020.7 |
| 20260501214503 | 83 | 63 | 1.7 | 5.2 | 0.00 | 0.00 | 0.00 | 17 | 1020.7 |
| 20260501214003 | 83 | 54 | 1.7 | 7.8 | 0.00 | 0.00 | 0.00 | 16 | 1020.9 |
| 20260501213503 | 84 | 17 | 5.2 | 10.4 | 0.00 | 0.00 | 0.00 | 17 | 1020.8 |
| 20260501213003 | 84 | 87 | 4.3 | 10.4 | 0.00 | 0.00 | 0.00 | 16 | 1020.8 |
| 20260501212503 | 83 | 66 | 2.6 | 8.7 | 0.00 | 0.00 | 0.00 | 17 | 1020.9 |
| 20260501212003 | 83 | 274 | 4.3 | 10.4 | 0.00 | 0.00 | 0.00 | 17 | 1020.9 |
| 20260501211503 | 83 | 41 | 5.2 | 8.7 | 0.00 | 0.00 | 0.00 | 17 | 1020.9 |
| 20260501211003 | 83 | 61 | 1.7 | 7.0 | 0.00 | 0.00 | 0.00 | 18 | 1021.0 |
| 20260501210503 | 83 | 1 | 6.1 | 13.0 | 0.00 | 0.00 | 0.00 | 18 | 1021.0 |
| 20260501210003 | 83 | 357 | 5.2 | 10.4 | 0.00 | 0.00 | 0.00 | 17 | 1021.0 |
| 20260501205003 | 83 | 72 | 4.3 | 8.7 | 0.00 | 0.00 | 0.00 | 18 | 1021.0 |
| 20260501204503 | 82 | 47 | 4.3 | 10.4 | 0.00 | 0.00 | 0.00 | 18 | 1021.1 |
| 20260501204004 | 82 | 349 | 8.7 | 12.2 | 0.00 | 0.00 | 0.00 | 18 | 1021.1 |